EW6338 Weather Reports


time (UTC)temp
C
wind
direction
speed
KPH
gust
KPH
rain 1hr
cm
rain 24hr
cm
rain mn
cm
humidity
%
barometer
mb
20260505041552 13 188 1.6 8.0 0.00 0.00 0.00 62 1008.5
20260505040046 13 257 0.0 6.4 0.00 0.00 0.00 61 1008.4
20260505034538 14 185 1.6 8.0 0.00 0.00 0.00 60 1008.4
20260505033037 14 77 0.0 4.8 0.00 0.00 0.00 59 1008.4
20260505031536 15 72 0.0 4.8 0.00 0.00 0.00 58 1008.3
20260505030046 15 140 0.0 6.4 0.00 0.00 0.00 57 1008.4
20260505024535 15 290 1.6 8.0 0.00 0.00 0.00 56 1008.4
20260505023035 15 220 1.6 6.4 0.00 0.00 0.00 55 1008.3
20260505021535 15 205 0.0 12.9 0.00 0.00 0.00 54 1008.3
20260505020039 16 271 1.6 8.0 0.00 0.00 0.00 53 1008.3
20260505014553 16 237 4.8 16.1 0.00 0.00 0.00 53 1008.1
20260505013039 16 124 3.2 9.7 0.00 0.00 0.00 52 1008.0
20260505011539 17 159 0.0 11.3 0.00 0.00 0.00 51 1007.6
20260505010034 17 201 0.0 9.7 0.00 0.00 0.00 49 1007.3
20260505004543 17 193 3.2 17.7 0.00 0.00 0.00 48 1006.9
20260505003050 18 20 3.2 16.1 0.00 0.00 0.00 47 1006.5
20260505001530 18 333 4.8 12.9 0.00 0.00 0.00 45 1006.1
20260505000034 18 207 1.6 9.7 0.00 0.00 0.00 41 1005.7
20260504234528 20 257 0.0 6.4 0.00 0.00 0.00 38 1005.3
20260504233029 20 311 1.6 6.4 0.00 0.00 0.00 37 1005.1
20260504231527 20 268 3.2 9.7 0.00 0.00 0.00 36 1004.9
20260504230026 21 285 0.0 8.0 0.00 0.00 0.00 36 1004.7
20260504224526 21 139 3.2 14.5 0.00 0.00 0.00 35 1004.6
20260504223027 21 135 0.0 8.0 0.00 0.00 0.00 35 1004.6
20260504221524 22 41 0.0 6.4 0.00 0.00 0.00 34 1004.6
20260504220023 22 293 4.8 12.9 0.00 0.00 0.00 33 1004.5
20260504214523 22 292 4.8 19.3 0.00 0.00 0.00 33 1004.5
20260504213027 22 51 3.2 20.9 0.00 0.00 0.00 32 1004.5
20260504211533 22 224 3.2 17.7 0.00 0.00 0.00 31 1004.5
20260504210020 22 203 3.2 9.7 0.00 0.00 0.00 32 1004.4
20260504204519 22 251 4.8 14.5 0.00 0.00 0.00 32 1004.6
20260504203018 22 304 1.6 16.1 0.00 0.00 0.00 32 1004.4
20260504201517 22 138 6.4 33.8 0.00 0.00 0.00 31 1004.5
20260504200018 22 115 4.8 19.3 0.00 0.00 0.00 31 1004.6
20260504194515 22 91 4.8 17.7 0.00 0.00 0.00 30 1004.7
20260504193014 22 138 1.6 22.5 0.00 0.00 0.00 31 1004.6
20260504191512 22 248 4.8 17.7 0.00 0.00 0.00 31 1004.8
20260504190009 22 26 3.2 17.7 0.00 0.00 0.00 31 1004.8
20260504184507 22 312 3.2 19.3 0.00 0.00 0.00 31 1005.1
20260504183009 21 314 6.4 17.7 0.00 0.00 0.00 31 1005.2
20260504181505 21 101 6.4 27.4 0.00 0.00 0.00 32 1005.2
20260504180004 21 231 4.8 27.4 0.00 0.00 0.00 32 1005.2
20260504174602 21 278 3.2 17.7 0.00 0.00 0.00 33 1005.3
20260504173059 20 240 3.2 20.9 0.00 0.00 0.00 35 1005.6
20260504171557 20 222 8.0 27.4 0.00 0.00 0.00 33 1005.5
20260504120104 11 240 0.0 12.9 0.00 0.00 0.00 56 1008.7
20260504081532 7 278 0.0 3.2 0.00 0.00 0.00 63 1008.7
20260504050003 5 308 0.0 1.6 0.00 0.00 0.00 67 1008.6
20260504044600 4 283 0.0 1.6 0.00 0.00 0.00 68 1008.7
20260504043103 4 278 0.0 1.6 0.00 0.00 0.00 69 1008.5